This demonstration page uses our WeatherBlox Daily Observations layout. Learn more.

Left ArrowRight Arrow

39.51506, -84.39828

Hourly Observations for January 27, 2019

Temp ( °F °C ) Dew Point ( °F °C ) Humidity (%) Winds ( mph kmh ) Pressure ( in mb ) Visibility ( mi km ) Precip ( " mm )
12:15 am 00:15 Cloudy with Light Snow 33 0.7 31 -0.3 93 93 SW 16 26 29.96 1015 7 11 0.00 0.00
12:35 am 00:35 Cloudy with Light Snow 33 0.6 31 -0.3 94 94 SW 14 22 29.96 1015 4 6 0.00 0.00
12:55 am 00:55 Cloudy with Light Snow 33 0.7 32 -0.2 94 94 SW 12 19 29.95 1014 10 16 0.00 0.00
1:15 am 01:15 Cloudy with Light Rain 33 0.8 32 -0.2 93 93 SW 10 17 29.95 1014 10 16 0.00 0.00
1:35 am 01:35 Cloudy with Light Rain 34 1.1 32 -0.1 92 92 SSW 12 19 29.95 1014 10 16 0.00 0.00
1:55 am 01:55 Cloudy with Light Rain 34 1.3 32 -0.2 90 90 WSW 13 20 29.96 1015 10 16 0.00 0.00
2:15 am 02:15 Cloudy 35 1.6 31 -0.6 85 85 WSW 18 30 29.97 1015 10 16 0.00 0.00
2:35 am 02:35 Cloudy 35 1.5 30 -0.9 84 84 WSW 13 20 29.97 1015 10 16 0.00 0.00
2:55 am 02:55 Mostly Cloudy 35 1.5 29 -1.9 78 78 WSW 13 20 29.97 1015 10 16 0.00 0.00
3:15 am 03:15 Cloudy 34 1.3 28 -2 79 79 WSW 14 22 29.98 1015 10 16 0.00 0.00
3:35 am 03:35 Cloudy 34 1.3 28 -2 79 79 WSW 13 20 29.98 1015 10 16 0.00 0.00
3:55 am 03:55 Cloudy 33 0.8 27 -2.8 77 77 W 18 30 29.99 1016 10 16 0.00 0.00
4:15 am 04:15 Cloudy 33 0.4 26 -3.3 77 77 WSW 15 24 30.00 1016 10 16 0.00 0.00
4:35 am 04:35 Cloudy 31 -0.3 26 -3.5 79 79 WNW 16 26 30.02 1016 10 16 0.00 0.00
4:55 am 04:55 Cloudy 30 -1 24 -4.2 79 79 W 18 30 30.03 1017 10 16 0.00 0.00
5:15 am 05:15 Cloudy 29 -1.6 22 -5.3 76 76 W 21 33 30.04 1017 10 16 0.00 0.00
5:35 am 05:35 Cloudy 28 -2 22 -5.3 78 78 W 14 22 30.06 1018 10 16 0.00 0.00
5:55 am 05:55 Cloudy 27 -2.9 21 -6.1 79 79 W 17 28 30.07 1018 10 16 0.00 0.00
6:15 am 06:15 Partly Cloudy 25 -3.8 18 -7.8 74 74 W 15 24 30.09 1019 10 16 0.00 0.00
6:35 am 06:35 Mostly Cloudy 25 -4.1 17 -8.2 73 73 W 14 22 30.11 1020 10 16 0.00 0.00
6:55 am 06:55 Cloudy 25 -4 17 -8.2 73 73 W 12 19 30.12 1020 10 16 0.00 0.00
7:15 am 07:15 Cloudy 25 -4.1 18 -8 75 75 W 10 17 30.12 1020 10 16 0.00 0.00
7:35 am 07:35 Cloudy 25 -4 17 -8.5 71 71 W 14 22 30.13 1020 10 16 0.00 0.00
7:55 am 07:55 Cloudy 25 -4.1 17 -8.4 72 72 W 13 20 30.13 1020 10 16 0.00 0.00
8:15 am 08:15 Cloudy 24 -4.3 16 -8.9 71 71 W 15 24 30.14 1021 10 16 0.00 0.00
8:35 am 08:35 Cloudy 24 -4.4 16 -8.8 72 72 W 7 11 30.15 1021 10 16 0.00 0.00
8:55 am 08:55 Partly Cloudy 23 -4.9 16 -8.9 74 74 W 10 17 30.15 1021 10 16 0.00 0.00
9:15 am 09:15 Sunny 23 -4.8 17 -8.6 75 75 WNW 9 15 30.15 1021 10 16 0.00 0.00
9:35 am 09:35 Partly Cloudy 24 -4.7 16 -8.7 74 74 WNW 9 15 30.16 1021 10 16 0.00 0.00
9:55 am 09:55 Cloudy 23 -5.1 16 -9 74 74 W 9 15 30.18 1022 10 16 0.00 0.00
10:15 am 10:15 Partly Cloudy 23 -5.2 16 -9.1 74 74 W 9 15 30.18 1022 10 16 0.00 0.00
10:35 am 10:35 Sunny 23 -5 16 -8.8 75 75 W 10 17 30.19 1022 10 16 0.00 0.00
10:55 am 10:55 Sunny 24 -4.7 16 -8.7 74 74 W 14 22 30.20 1023 10 16 0.00 0.00
11:15 am 11:15 Sunny 24 -4.5 16 -8.9 72 72 W 12 19 30.20 1023 10 16 0.00 0.00
11:35 am 11:35 Partly Cloudy 24 -4.6 15 -9.2 71 71 W 13 20 30.20 1023 10 16 0.00 0.00
11:55 am 11:55 Sunny 24 -4.3 15 -9.5 67 67 W 13 20 30.19 1022 10 16 0.00 0.00
12:15 pm 12:15 Sunny 24 -4.4 14 -10.2 64 64 WNW 10 17 30.18 1022 10 16 0.00 0.00
12:35 pm 12:35 Sunny 24 -4.2 13 -10.7 61 61 W 9 15 30.17 1022 10 16 0.00 0.00
12:55 pm 12:55 Sunny 25 -3.9 13 -10.8 59 59 WNW 13 20 30.18 1022 10 16 0.00 0.00
1:15 pm 13:15 Sunny 25 -3.9 12 -11.3 57 57 WNW 13 20 30.18 1022 10 16 0.00 0.00
1:35 pm 13:35 Sunny 25 -4.1 10 -12.1 54 54 W 6 9 30.18 1022 10 16 0.00 0.00
1:55 pm 13:55 Sunny 25 -4.1 10 -12.4 53 53 W 14 22 30.17 1022 10 16 0.00 0.00
2:15 pm 14:15 Sunny 25 -4 9 -12.6 52 52 W 9 15 30.16 1021 10 16 0.00 0.00
2:35 pm 14:35 Sunny 25 -4 10 -12.5 52 52 W 9 15 30.16 1021 10 16 0.00 0.00
2:55 pm 14:55 Sunny 25 -4.1 9 -13 50 50 WSW 7 11 30.16 1021 10 16 0.00 0.00
3:15 pm 15:15 Sunny 24 -4.2 9 -13 51 51 WSW 9 15 30.16 1021 10 16 0.00 0.00
3:35 pm 15:35 Sunny 24 -4.2 7 -13.8 48 48 W 9 15 30.17 1022 10 16 0.00 0.00
3:55 pm 15:55 Sunny 24 -4.4 8 -13.5 49 49 W 8 13 30.17 1022 10 16 0.00 0.00
4:15 pm 16:15 Sunny 24 -4.4 8 -13.3 50 50 NW 3 6 30.18 1022 10 16 0.00 0.00
4:35 pm 16:35 Sunny 24 -4.4 8 -13.2 51 51 W 7 11 30.18 1022 10 16 0.00 0.00
4:55 pm 16:55 Sunny 24 -4.6 8 -13.6 50 50 Calm 30.17 1022 10 16 0.00 0.00
5:15 pm 17:15 Sunny 23 -4.8 7 -14 49 49 WNW 3 6 30.17 1022 10 16 0.00 0.00
5:35 pm 17:35 Sunny 23 -5.2 6 -14.3 49 49 NW 3 6 30.17 1022 10 16 0.00 0.00
5:55 pm 17:55 Clear 22 -5.7 5 -14.8 49 49 Calm 30.16 1021 10 16 0.00 0.00
6:15 pm 18:15 Clear 21 -6 6 -14.7 51 51 Calm 30.16 1021 10 16 0.00 0.00
6:35 pm 18:35 Clear 20 -6.7 8 -13.3 60 60 NNE 3 6 30.15 1021 10 16 0.00 0.00
7:15 pm 19:15 Clear 19 -7.3 8 -13.2 63 63 N 3 6 30.17 1022 10 16 0.00 0.00
7:35 pm 19:35 Clear 19 -7.5 8 -13.2 64 64 Calm 30.17 1022 10 16 0.00 0.00
7:55 pm 19:55 Clear 19 -7.3 9 -12.8 65 65 Calm 30.17 1022 10 16 0.00 0.00
8:15 pm 20:15 Clear 18 -7.9 10 -12.3 71 71 Calm 30.17 1022 10 16 0.00 0.00
8:35 pm 20:35 Clear 17 -8.3 10 -12.3 73 73 Calm 30.17 1022 10 16 0.00 0.00
8:55 pm 20:55 Clear 16 -8.7 10 -12.5 74 74 N 3 6 30.16 1021 10 16 0.00 0.00
9:15 pm 21:15 Clear 16 -8.9 9 -12.6 75 75 Calm 30.16 1021 10 16 0.00 0.00
9:35 pm 21:35 Cloudy 16 -8.7 10 -12 77 77 N 5 7 30.15 1021 10 16 0.00 0.00
9:55 pm 21:55 Cloudy 18 -7.9 11 -11.8 74 74 Calm 30.15 1021 10 16 0.00 0.00
10:15 pm 22:15 Cloudy 19 -7.3 12 -11.1 75 75 NNE 3 6 30.15 1021 10 16 0.00 0.00
10:35 pm 22:35 Cloudy 19 -7.2 11 -11.8 70 70 Calm 30.13 1020 10 16 0.00 0.00
10:55 pm 22:55 Cloudy 20 -6.9 11 -11.6 70 70 NE 3 6 30.13 1020 10 16 0.00 0.00
11:15 pm 23:15 Cloudy 20 -6.7 11 -11.5 69 69 NNE 6 9 30.13 1020 10 16 0.00 0.00
11:35 pm 23:35 Cloudy 20 -6.8 11 -11.8 68 68 NE 6 9 30.13 1020 10 16 0.00 0.00
11:55 pm 23:55 Cloudy 20 -6.9 10 -12.2 66 66 NE 6 9 30.11 1020 10 16 0.00 0.00

Powered by AerisWeather